Weather History for KBZN - June, 2013

Change the Weather History Date:

Saturday, June 1, 2013

  Actual Average Record
Temperature  
Mean Temperature 50 °F 58 °F  
Max Temperature 67 °F 73 °F 89 °F (1977)
Min Temperature 32 °F 43 °F 31 °F (1951)
Degree Days  
Heating Degree Days 15    
Month to date heating degree days 15  
Since 1 June heating degree days 15  
Since 1 July heating degree days 7867  
Cooling Degree Days 0    
Month to date cooling degree days 0  
Year to date cooling degree days 2  
Since 1 June cooling degree days 0  
Moisture  
Dew Point 37 °F    
Average Humidity 62    
Maximum Humidity 92    
Minimum Humidity 32    
Precipitation  
Precipitation 0.00 in 0.10 in 0.85 in (1954)
Month to date precipitation 0.00 0.10  
Year to date precipitation 3.89 6.00  
Snow  
Snow 0.00 in 0.00 in T in (1954)
Month to date snowfall 0.0 0.0  
Since 1 June snowfall 0.0 0.0  
Since 1 July snowfall 24.6 39.9  
Snow Depth 0.00 in    
Sea Level Pressure  
Sea Level Pressure 30.18 in    
Wind  
Wind Speed 3 mph (WSW)    
Max Wind Speed 9 mph    
Max Gust Speed 13 mph    
Visibility 10 miles    
Events      
T = Trace of Precipitation, MM = Missing Value Source: NWS Daily Summary

Daily Weather History Graph

Daily Weather History Graph

Search for Another Location

Airport or City:

Trip Planner

Search our weather history database for the weather conditions in past years. The results will help you decide how hot, cold, wet, or windy it might be!

Date:

Astronomy

Jun. 01, 2013 Rise Set
Actual Time 5:38 AM MDT 9:07 PM MDT
Civil Twilight 5:00 AM MDT 9:44 PM MDT
Nautical Twilight 4:11 AM MDT 10:34 PM MDT
Astronomical Twilight 3:08 AM MDT 11:38 PM MDT
Moon 1:56 AM MDT (6/1) 2:22 PM MDT (6/1)
Length of Visible Light 16h 43m
Length of Day
15h 29m
Last Quarter, 40% of the Moon is Illuminated
Jun 1
Last Quarter
Jun 8
New
Jun 16
First Quarter
Jun 23
Full
Jun 29
Last Quarter

Hourly Weather History & Observations

Time (MDT) Temp. Windchill Dew Point Humidity Pressure Visibility Wind Dir Wind Speed Gust Speed Precip Events Conditions
12:56 AM 43.0 °F - 37.9 °F 82% 30.32 in 10.0 mi Calm Calm - N/A   Scattered Clouds
1:56 AM 41.0 °F 39.0 °F 37.0 °F 86% 30.33 in 10.0 mi SW 3.5 mph - N/A   Scattered Clouds
2:56 AM 39.9 °F - 36.0 °F 86% 30.33 in 10.0 mi Calm Calm - N/A   Clear
3:56 AM 36.0 °F 32.1 °F 34.0 °F 93% 30.34 in 10.0 mi South 4.6 mph - N/A   Clear
4:56 AM 37.0 °F 34.5 °F 34.0 °F 89% 30.33 in 10.0 mi South 3.5 mph - N/A   Clear
5:56 AM 33.1 °F 28.7 °F 30.9 °F 92% 30.34 in 10.0 mi South 4.6 mph - N/A   Clear
6:56 AM 39.0 °F - 36.0 °F 89% 30.32 in 10.0 mi Calm Calm - N/A   Clear
7:56 AM 45.0 °F 43.5 °F 37.9 °F 76% 30.29 in 10.0 mi South 3.5 mph - N/A   Clear
8:56 AM 46.9 °F - 37.9 °F 71% 30.30 in 10.0 mi Calm Calm - N/A   Clear
9:56 AM 51.1 °F - 39.0 °F 63% 30.27 in 10.0 mi Calm Calm - N/A   Clear
10:56 AM 55.0 °F - 39.0 °F 55% 30.24 in 10.0 mi Calm Calm - N/A   Clear
11:56 AM 59.0 °F - 39.0 °F 48% 30.21 in 10.0 mi Variable 4.6 mph - N/A   Clear
12:56 PM 60.1 °F - 35.1 °F 39% 30.18 in 10.0 mi Calm Calm - N/A   Clear
1:56 PM 63.0 °F - 36.0 °F 37% 30.15 in 10.0 mi Calm Calm - N/A   Clear
2:56 PM 66.0 °F - 37.9 °F 36% 30.12 in 10.0 mi NNW 4.6 mph - N/A   Clear
3:56 PM 66.0 °F - 39.0 °F 37% 30.11 in 10.0 mi NNW 6.9 mph - N/A   Clear
4:56 PM 66.0 °F - 37.0 °F 34% 30.08 in 10.0 mi Calm Calm - N/A   Clear
5:56 PM 66.0 °F - 35.1 °F 32% 30.07 in 10.0 mi Calm Calm - N/A   Clear
6:56 PM 63.0 °F - 41.0 °F 45% 30.05 in 10.0 mi NE 4.6 mph - N/A   Clear
7:56 PM 61.0 °F - 42.1 °F 50% 30.02 in 10.0 mi NW 4.6 mph - N/A   Clear
8:56 PM 59.0 °F - 37.0 °F 44% 30.01 in 10.0 mi WNW 3.5 mph - N/A   Clear
9:56 PM 57.9 °F - 35.1 °F 42% 30.01 in 10.0 mi West 4.6 mph - N/A   Clear
10:56 PM 54.0 °F - 39.9 °F 59% 30.00 in 10.0 mi SSE 3.5 mph - N/A   Overcast
11:56 PM 51.1 °F - 41.0 °F 68% 30.00 in 10.0 mi North 6.9 mph - N/A   Mostly Cloudy